Torna al catalogo

YAOGAN 17C

AttivoMilitareLEO
NORAD 39241·PAYLOAD·🇨🇳 China

Lanciato Sep 1, 2013 da Jiuquan Satellite Launch Center

Loading…

Prossimi Passaggi (prossime 24 ore)

TLE

AggiornatoSource: Space-Track

Epoca: Sep 14, 2026, 13:58 UTC

1 39241U 13046C   26257.58247021 -.00000056  00000-0  33138-4 0  9998
2 39241  63.3842 219.0514 0435011  11.9195 349.1737 13.45485876640408

Traccia YAOGAN 17C in tempo reale con AllMySat

Download on the App Store